Wind_Speed
44 51 68 68 61 49 41 40 43 39 40 37 41 37 41 30 27 21 16 16 18 21 21 19 19 23 29 28 25 30 36 31 29 28 30 27 26 23 24 24 23 18 16 15
45 62 65 58 55 47 44 46 49 44 44 37 39 39 31 27 22 19 14 16 19 21 23 27 24 26 30 27 23 26 29 29 27 28 28 26 24 21 24 23 21 17 14 14
61 63 58 51 50 46 47 52 45 47 30 24 33 41 37 23 22 18 15 10 9 15 18 20 24 26 22 20 21 23 24 25 25 28 24 24 21 21 23 22 19 13 12 13
56 62 26 52 55 52 54 50 45 44 36 19 8 12 34 24 21 21 12 12 13 18 19 22 15 10 6 8 13 18 21 21 25 23 23 20 19 20 20 20 15 13 11 8
50 48 62 40 42 50 54 43 44 41 38 31 29 17 28 29 22 24 17 17 15 14 13 11 9 9 8 6 11 17 17 21 21 21 20 17 17 18 16 14 13 12 8 5
43 31 36 62 41 34 35 16 22 26 23 13 28 20 29 31 28 24 19 11 8 8 6 10 9 11 7 8 12 14 17 18 19 20 15 15 15 15 14 14 12 10 5 2
30 34 18 26 41 35 30 24 4 5 6 5 21 16 35 12 9 21 17 13 11 10 12 9 8 7 7 7 10 15 15 16 17 14 12 12 12 12 13 14 9 6 2 3
22 12 31 28 39 35 38 37 16 8 4 4 18 14 17 15 13 10 10 13 12 11 13 8 3 5 5 8 12 13 13 13 13 9 10 10 10 9 13 11 2 3 1 4
24 24 13 26 28 35 37 38 32 11 8 2 11 11 22 21 13 10 13 11 14 13 14 5 4 6 6 10 13 10 10 10 8 7 8 8 6 7 8 6 2 5 3 4
19 13 30 22 29 32 38 35 28 24 6 4 6 9 13 15 17 5 7 10 10 16 10 4 6 7 8 10 8 6 8 7 6 6 6 5 3 5 6 2 3 2 5 7
35 11 11 32 38 40 33 35 21 26 13 5 1 8 15 14 8 9 4 6 11 13 5 5 6 9 9 8 6 5 6 6 5 5 5 3 2 4 6 2 3 7 8 10
26 15 17 29 31 35 42 42 43 24 20 16 3 5 19 16 13 14 12 9 14 10 6 5 7 9 9 7 6 4 4 5 4 4 2 2 1 4 5 6 5 9 9 9
5 11 10 4 22 21 49 47 46 39 20 35 5 6 9 15 14 10 13 14 16 10 7 5 10 10 8 8 6 3 2 3 2 1 2 1 2 4 5 8 7 6 7 10
1 13 13 12 15 26 38 41 41 36 17 27 45 29 27 11 9 9 15 19 16 11 6 5 10 11 7 8 6 2 0 2 2 2 4 3 5 6 8 8 10 11 11 11
4 7 18 29 17 14 13 39 45 55 42 23 30 33 18 13 8 6 15 20 18 12 6 5 9 9 7 9 6 3 2 3 3 4 6 5 8 9 9 8 8 12 13 11
5 5 12 28 36 27 23 16 40 50 54 46 35 31 25 13 15 16 13 19 16 13 6 6 8 9 8 9 8 5 3 4 5 6 8 7 8 9 11 8 7 8 12 10
18 4 13 7 18 18 24 39 25 37 42 49 41 46 33 23 17 17 17 19 11 13 8 6 4 5 9 10 9 7 4 4 6 7 9 8 7 8 10 11 12 13 13 13
13 12 6 6 2 6 16 27 32 23 26 44 47 41 37 26 18 18 21 20 12 13 11 8 6 9 13 12 11 9 7 5 7 9 11 10 7 6 8 11 12 11 11 12
11 10 2 3 6 10 14 7 20 33 29 15 29 36 36 31 26 26 23 22 12 13 12 7 5 6 13 12 11 11 9 6 7 10 12 12 9 7 6 9 11 11 10 11
12 12 11 3 3 5 6 15 8 26 30 29 23 28 32 30 33 30 23 27 19 14 16 13 11 9 14 15 12 11 11 8 6 8 10 12 10 8 6 6 8 10 12 13
8 16 21 21 5 6 9 17 21 22 16 29 28 26 32 40 29 26 22 26 20 15 16 18 13 7 9 15 14 12 11 10 8 7 9 11 11 10 8 5 5 9 9 12
7 8 11 13 7 7 10 10 18 16 22 24 32 31 28 32 34 32 26 31 21 21 21 23 17 15 12 13 16 15 12 12 10 8 9 10 10 9 8 10 7 7 8 10
9 7 4 6 8 4 2 7 5 13 20 23 30 37 31 31 33 29 25 30 26 24 26 27 23 19 15 12 12 15 16 11 11 11 9 10 11 11 9 8 8 9 8 9
7 9 13 15 3 14 3 1 4 10 18 26 23 29 33 30 31 30 27 27 29 27 28 27 28 23 17 14 13 12 15 15 12 12 11 10 11 11 12 11 10 10 10 10
4 2 1 9 19 13 10 6 5 10 14 25 24 26 29 32 32 31 31 27 26 25 31 26 23 27 20 17 18 15 15 19 17 14 14 13 12 11 13 13 13 12 12 13
5 4 4 7 9 6 4 9 6 9 15 19 25 24 28 27 31 36 33 27 25 28 26 25 25 30 24 21 19 18 18 19 21 19 15 14 14 13 13 14 15 15 15 16
Wind_Direction
226 224 231 228 232 236 245 257 263 273 270 272 287 285 293 288 288 261 262 281 272 266 259 261 272 271 266 268 272 285 270 272 275 291 303 301 301 299 307 312 315 312 295 291
219 226 230 234 235 238 243 250 253 265 267 272 284 284 287 281 268 251 272 281 262 260 267 268 268 280 278 273 260 269 266 268 277 295 298 298 298 297 304 317 318 315 297 283
222 234 226 229 229 230 236 240 247 258 264 257 278 280 292 274 261 257 266 260 275 278 275 275 271 277 277 269 262 262 264 266 283 295 293 297 296 295 307 318 316 318 308 301
229 226 229 230 231 231 234 238 246 254 260 269 285 289 284 273 250 240 240 241 278 295 283 281 292 276 254 238 253 260 262 275 289 288 292 297 293 295 310 320 320 322 315 310
228 232 221 223 229 231 237 239 246 253 259 271 272 272 280 284 260 229 243 258 284 281 274 286 274 269 249 259 268 261 270 283 286 289 295 291 288 300 313 322 326 326 310 279
238 240 229 228 227 232 236 230 239 248 256 251 260 251 277 272 251 237 240 263 289 257 271 265 259 268 252 270 268 269 277 283 288 289 290 289 295 305 311 315 328 330 306 210
229 221 230 226 221 226 219 208 189 246 240 230 266 245 248 257 254 228 238 246 280 266 264 237 248 247 257 263 263 271 277 285 284 286 284 293 305 311 317 321 328 333 337 187
211 201 205 209 207 199 199 198 176 188 206 232 247 220 241 262 231 241 233 263 276 256 236 234 216 240 232 248 265 272 283 283 283 282 283 303 317 319 340 331 15 346 17 151
207 220 206 213 208 205 201 208 215 224 234 207 233 245 238 237 214 266 254 272 268 233 219 205 222 219 232 253 275 274 278 282 269 283 293 312 319 340 354 34 19 4 108 124
223 220 224 214 217 216 217 207 193 214 193 225 266 243 227 228 233 245 230 242 227 196 196 201 226 224 226 275 267 267 279 264 262 285 302 315 303 11 5 311 10 90 108 133
210 215 210 203 207 198 193 196 199 203 217 168 202 249 215 213 190 201 212 277 194 192 169 218 225 222 240 265 237 265 265 241 247 288 311 326 280 356 4 41 30 114 105 129
197 215 210 213 220 216 207 205 204 201 195 214 179 259 198 203 212 233 259 254 193 176 174 216 230 229 265 227 215 254 261 225 243 301 334 2 312 36 35 74 106 102 121 133
183 191 185 187 195 203 212 210 211 211 212 209 194 228 213 191 194 235 250 214 195 178 186 230 241 234 254 213 207 242 270 207 226 306 83 54 70 56 77 85 102 122 122 132
233 224 211 195 207 205 206 208 207 200 204 204 221 242 234 211 238 267 204 195 181 163 173 234 231 227 236 208 195 218 126 161 137 112 104 76 78 87 98 109 102 95 113 117
316 281 245 226 199 198 191 214 208 211 212 206 213 215 215 223 254 224 191 191 186 191 185 247 231 227 227 204 184 179 112 140 128 125 113 100 88 93 104 118 119 99 97 105
308 302 279 236 231 238 245 211 224 220 222 233 231 227 220 226 230 221 221 199 201 186 190 231 233 224 218 199 178 166 114 129 140 137 126 123 100 108 97 95 128 110 92 87
321 302 338 239 234 253 257 224 221 224 225 224 227 231 232 241 236 214 215 205 191 184 191 234 283 234 209 194 175 157 128 129 151 147 136 126 127 117 109 97 100 113 105 108
290 292 342 295 131 206 247 244 225 223 225 228 231 236 238 233 232 224 215 201 192 185 190 209 232 221 198 189 183 162 146 135 155 154 149 138 130 145 131 116 115 126 122 112
232 258 220 251 251 272 217 227 199 223 227 220 235 235 239 242 247 221 203 205 195 200 187 192 207 217 202 189 180 171 157 146 152 161 163 155 147 138 128 125 125 121 124 114
193 221 207 233 239 229 168 198 208 214 227 226 224 222 230 230 230 219 214 210 208 208 200 195 208 199 197 194 182 176 162 158 147 165 165 166 163 150 137 112 114 122 122 118
187 203 205 224 266 260 264 208 204 184 204 217 215 216 218 222 224 226 219 198 201 203 207 195 213 197 204 198 190 179 170 165 164 166 172 165 172 172 161 143 123 117 123 124
144 166 194 208 222 271 289 206 194 224 212 202 212 220 220 220 219 230 228 214 213 206 206 196 208 198 194 191 196 187 175 182 172 171 169 171 170 178 175 163 154 135 129 127
223 238 158 219 229 240 11 54 141 204 219 207 208 220 224 222 219 210 221 218 221 212 201 200 207 204 201 189 187 192 194 187 183 180 176 167 167 177 186 175 162 149 144 139
213 250 266 285 161 229 194 42 201 216 220 215 210 211 221 222 212 208 211 216 218 214 205 203 205 207 203 188 190 190 204 199 193 190 193 186 173 175 178 176 170 164 157 157
156 112 254 268 265 224 205 261 259 226 222 209 211 211 214 215 210 213 210 211 216 216 209 208 205 210 206 195 195 211 213 205 199 198 199 197 193 185 184 177 175 172 172 166
52 40 345 314 259 318 182 225 266 219 214 204 207 202 203 213 210 208 212 213 215 211 208 211 208 208 208 207 205 215 227 214 204 203 202 201 206 200 198 192 188 185 181 180
Height
3064 3068 3056 3057 3068 3077 3086 3089 3087 3093 3095 3093 3089 3087 3086 3087 3085 3087 3087 3087 3087 3089 3089 3089 3089 3088 3088 3089 3090 3090 3090 3090 3090 3089 3087 3085 3081 3077 3074 3069 3065 3060 3057 3055
3058 3040 3051 3061 3068 3076 3080 3081 3080 3086 3087 3088 3085 3082 3081 3080 3080 3083 3083 3082 3084 3085 3085 3084 3083 3083 3081 3083 3084 3084 3085 3086 3087 3085 3083 3081 3076 3073 3069 3065 3062 3057 3054 3053
3035 3028 3049 3053 3060 3064 3068 3069 3077 3079 3082 3081 3081 3075 3077 3076 3076 3078 3079 3079 3079 3079 3079 3078 3078 3077 3076 3077 3080 3081 3082 3082 3082 3081 3079 3076 3072 3069 3065 3062 3058 3053 3051 3049
3030 3038 3043 3045 3046 3056 3058 3065 3073 3076 3078 3078 3078 3070 3072 3070 3071 3073 3074 3075 3076 3075 3074 3074 3073 3073 3073 3074 3076 3077 3079 3079 3079 3077 3074 3071 3069 3066 3062 3059 3054 3051 3048 3046
3010 3023 3031 3033 3036 3049 3050 3063 3068 3073 3072 3076 3074 3077 3060 3067 3067 3068 3071 3072 3072 3070 3069 3070 3070 3070 3070 3072 3073 3075 3076 3076 3075 3073 3070 3068 3065 3063 3060 3056 3052 3049 3046 3045
3016 3021 3026 3029 3039 3046 3055 3062 3067 3070 3071 3066 3069 3075 3052 3058 3060 3064 3067 3068 3068 3066 3067 3068 3068 3068 3069 3070 3071 3072 3074 3073 3071 3068 3067 3065 3062 3060 3057 3054 3051 3048 3045 3045
3008 3014 3020 3026 3035 3043 3050 3057 3064 3068 3065 3059 3062 3064 3046 3053 3053 3059 3063 3064 3063 3064 3065 3065 3066 3066 3067 3068 3069 3070 3070 3069 3067 3065 3064 3062 3060 3058 3054 3051 3049 3046 3045 3045
3004 3010 3011 3014 3021 3028 3036 3045 3047 3060 3058 3052 3051 3043 3042 3048 3053 3055 3058 3058 3059 3061 3062 3063 3063 3064 3064 3066 3067 3067 3067 3065 3063 3063 3062 3060 3058 3056 3053 3049 3048 3047 3045 3045
2997 3000 3005 3010 3016 3026 3033 3034 3044 3046 3046 3048 3040 3037 3040 3045 3049 3052 3053 3053 3055 3057 3059 3061 3061 3062 3062 3064 3064 3064 3064 3062 3061 3061 3060 3058 3057 3055 3053 3050 3048 3047 3046 3046
2992 2996 2998 3007 3015 3020 3021 3032 3039 3042 3044 3046 3035 3033 3034 3037 3044 3048 3048 3050 3051 3054 3057 3058 3059 3060 3061 3062 3062 3062 3061 3060 3059 3059 3058 3057 3057 3055 3053 3051 3049 3047 3046 3047
2987 2991 2994 3000 2996 3004 3016 3019 3025 3032 3034 3037 3039 3030 3030 3035 3040 3044 3046 3048 3050 3053 3055 3056 3057 3058 3059 3060 3060 3060 3059 3059 3058 3058 3057 3056 3056 3054 3052 3051 3049 3048 3048 3048
2981 2986 2989 2990 2997 3004 3007 3008 3012 3017 3021 3029 3030 3029 3029 3034 3038 3041 3045 3047 3050 3052 3054 3055 3056 3057 3058 3058 3059 3059 3058 3058 3057 3057 3057 3056 3056 3055 3053 3052 3050 3050 3050 3050
2979 2982 2986 2990 2997 2996 2995 3000 3007 3014 3020 3024 3030 3026 3027 3030 3034 3038 3041 3045 3048 3050 3052 3053 3054 3056 3056 3056 3058 3057 3057 3056 3056 3057 3056 3056 3056 3055 3054 3053 3053 3052 3052 3052
2975 2975 2977 2978 2981 2990 2993 2999 3005 3012 3015 3017 3016 3022 3026 3029 3033 3035 3037 3043 3047 3049 3051 3052 3053 3054 3054 3055 3056 3056 3056 3056 3056 3057 3056 3057 3057 3056 3055 3056 3056 3055 3054 3055
2975 2973 2973 2974 2978 2983 2988 2992 2996 2998 3007 3011 3012 3018 3023 3028 3032 3035 3038 3041 3045 3048 3049 3050 3051 3052 3052 3054 3055 3056 3056 3056 3056 3057 3057 3058 3058 3058 3057 3058 3059 3058 3057 3058
2974 2973 2971 2972 2975 2981 2983 2987 2992 2997 3002 3006 3012 3013 3022 3026 3029 3035 3037 3040 3043 3046 3048 3049 3049 3050 3051 3053 3054 3055 3056 3056 3057 3058 3058 3059 3060 3060 3059 3060 3060 3061 3060 3060
2974 2974 2973 2972 2975 2979 2979 2974 2985 2992 2996 3003 3006 3007 3018 3023 3028 3032 3036 3039 3041 3044 3046 3047 3048 3049 3050 3053 3054 3054 3056 3056 3057 3059 3060 3061 3062 3062 3062 3062 3063 3063 3063 3063
2973 2973 2974 2972 2974 2977 2970 2974 2982 2986 2990 2997 3002 3008 3015 3021 3025 3030 3034 3037 3039 3042 3044 3047 3047 3047 3049 3051 3053 3053 3055 3057 3058 3059 3061 3062 3064 3065 3065 3064 3065 3066 3066 3066
2969 2971 2973 2972 2972 2967 2968 2971 2974 2980 2986 2994 2998 3004 3011 3017 3020 3026 3030 3034 3037 3040 3043 3046 3047 3047 3048 3051 3053 3053 3055 3057 3058 3060 3062 3063 3065 3067 3068 3067 3067 3068 3069 3069
2964 2967 2972 2971 2972 2966 2965 2968 2970 2976 2980 2986 2990 2995 3004 3010 3013 3020 3025 3030 3034 3037 3041 3044 3046 3046 3048 3050 3052 3053 3054 3057 3058 3060 3062 3065 3066 3068 3070 3071 3071 3071 3072 3072
2959 2962 2965 2968 2969 2964 2962 2963 2967 2971 2977 2978 2984 2988 2993 3000 3009 3016 3021 3026 3031 3034 3038 3042 3044 3046 3047 3049 3051 3053 3054 3056 3058 3060 3062 3064 3067 3069 3070 3072 3074 3074 3075 3076
2956 2959 2962 2966 2967 2965 2960 2960 2963 2967 2967 2972 2977 2982 2987 2995 3002 3010 3017 3021 3025 3030 3034 3038 3042 3044 3046 3047 3050 3052 3054 3056 3058 3061 3063 3064 3066 3069 3071 3073 3075 3076 3077 3079
2957 2957 2959 2963 2962 2961 2960 2959 2960 2960 2963 2966 2971 2976 2981 2988 2995 3003 3011 3016 3021 3026 3030 3034 3038 3042 3045 3046 3048 3052 3053 3055 3057 3060 3063 3065 3067 3069 3071 3073 3075 3077 3079 3081
2952 2955 2957 2960 2958 2957 2959 2959 2959 2959 2960 2963 2966 2971 2977 2983 2991 2998 3005 3011 3016 3021 3025 3030 3034 3039 3042 3044 3046 3050 3052 3055 3056 3059 3062 3064 3066 3068 3071 3073 3075 3078 3080 3082
2953 2954 2954 2955 2955 2955 2957 2958 2958 2957 2957 2960 2963 2968 2973 2978 2986 2993 3000 3006 3012 3017 3022 3026 3030 3034 3039 3042 3044 3046 3049 3052 3055 3057 3059 3062 3065 3068 3071 3073 3075 3078 3080 3082
2955 2954 2955 2954 2954 2953 2954 2956 2955 2955 2954 2956 2960 2964 2970 2975 2982 2988 2995 3002 3006 3012 3018 3022 3027 3031 3036 3039 3042 3044 3045 3049 3052 3054 3057 3060 3063 3066 3070 3072 3074 3077 3079 3081